Regional Weather Roundup
Issued by NWS Memphis, TN

Home | Current Version | Previous Version | Text Only | Print | Product List | Glossary On
Versions: 1 2 3 4 5 6 7 8 9 10 11 12 13 14 15 16 17 18 19 20 21 22 23 24 25 26 27 28 29 30 31 32 33 34 35 36 37 38 39 40 41 42 43 44 45 46 47 48 49 50
000
ASUS44 KMEG 312300
RWRMEG
MEMPHIS CWA HOURLY WEATHER ROUNDUP
NATIONAL WEATHER SERVICE MEMPHIS TN
600 PM CDT FRI OCT 31 2014

...WEST TENNESSEE...

CITY           SKY/WX    TMP DP  RH WIND       PRES   REMARKS
MEMPHIS INTL   PTCLDY    51  21  30 N17G26    30.22R
NWS MEMPHIS      N/A     49 N/A N/A MISG        N/A
JACKSON        CLEAR     46  23  40 N20G28    30.21R
LEXINGTON      PTCLDY    45  21  39 N12       30.17R
SAVANNAH       PTCLDY    46  25  42 N16G31    30.17R
DYERSBURG      CLEAR     46  19  34 N18G26    30.26R
UNION CITY     CLEAR     43  21  42 N14       30.23R
PARIS          PTCLDY    41  25  52 N9        30.21R


...EASTERN ARKANSAS...

CITY           SKY/WX    TMP DP  RH WIND       PRES   REMARKS
JONESBORO      CLEAR     50  17  27 N12G25    30.26R
WEST MEMPHIS   CLEAR     50  25  37 N20G26    30.22R
BATESVILLE     CLEAR     50  18  27 N8G18     30.29R
WALNUT RIDGE   CLEAR     48  18  29 N14       30.28R
BLYTHEVILLE    CLEAR     47  27  45 N22G28    30.26R
STUTTGART      CLEAR     55  28  35 N16G25    30.24R
PINE BLUFF     CLEAR     58  33  39 N10G26    30.23R
MONTICELLO     PTCLDY    59  41  51 VRB3      30.21R


...NORTH MISSISSIPPI...

CITY           SKY/WX    TMP DP  RH WIND       PRES   REMARKS
TUPELO         CLOUDY    53  36  52 N20G30    30.13R
GREENWOOD      PTCLDY    55  39  54 N12G22    30.19R
COLUMBUS       DRIZZLE   55  43  62 NW22G30   30.10R
STARKVILLE     CLOUDY    54  41  62 NW9G21    30.13R
GOLDEN TRIANGL MOCLDY    57  43  58 N21G30    30.09R


...SOUTHEAST MISSOURI...

CITY           SKY/WX    TMP DP  RH WIND       PRES   REMARKS
WEST PLAINS    CLEAR     43  18  36 N10G20    30.32R
POPLAR BLUFF   CLEAR     47  18  31 N17G24    30.27R
CAPE GIRARDEAU CLEAR     45  21  38 N17G25    30.27R


...NORTHWEST ALABAMA...

CITY           SKY/WX    TMP DP  RH WIND       PRES   REMARKS
MUSCLE SHOALS    N/A     50  35  56 N10G24    30.11R


...MIDDLE TENNESSEE...

CITY           SKY/WX    TMP DP  RH WIND       PRES   REMARKS
NASHVILLE      MOCLDY    43  25  49 NW18G28   30.12R
CLARKSVILLE    MOCLDY    42  27  55 NW16      30.16R


...WESTERN KENTUCKY...

CITY           SKY/WX    TMP DP  RH WIND       PRES   REMARKS
PADUCAH        PTCLDY    44  23  43 N18G25    30.23R
FORT CAMPBELL  CLOUDY    42  26  54 NW10G22   30.17R


...CENTRAL ARKANSAS...

CITY           SKY/WX    TMP DP  RH WIND       PRES   REMARKS
LITTLE ROCK    PTCLDY    57  22  25 N14       30.26R


SKY/WX REPORTED AS FAIR MEANS FEW OR NO CLOUDS BELOW
12 THOUSAND FEET.




USA.gov is the U.S. government's official web portal to all federal, state and local government web resources and services.